QPF
0.03 0.03 0.02 0.02 0.03 0.02 0.01 0.01 0.01 0.01 0.01 0.02 0.02 0.02 0.01 0.01 0.01 0.03 0.02 0.02 0.03 0.03 0.03 0.02 0.02 0.02 0.02 0.01 0.01 0.02 0.01 0.01 0.01 0.02 0.02 0.02 0.02 0.01 0.01 0.00 0.00 0.01 0.02
0.03 0.03 0.02 0.03 0.04 0.03 0.01 0.02 0.02 0.02 0.02 0.02 0.02 0.03 0.01 0.01 0.02 0.03 0.02 0.03 0.03 0.03 0.03 0.04 0.03 0.03 0.02 0.01 0.01 0.01 0.01 0.01 0.01 0.01 0.01 0.02 0.02 0.02 0.01 0.01 0.01 0.02 0.01
0.03 0.02 0.02 0.02 0.03 0.02 0.01 0.02 0.03 0.02 0.02 0.02 0.03 0.04 0.02 0.02 0.04 0.02 0.02 0.03 0.02 0.03 0.04 0.04 0.03 0.03 0.02 0.01 0.01 0.01 0.02 0.02 0.01 0.00 0.00 0.00 0.01 0.01 0.01 0.02 0.02 0.02 0.02
0.04 0.02 0.01 0.01 0.02 0.02 0.02 0.02 0.02 0.02 0.02 0.03 0.03 0.04 0.03 0.03 0.05 0.04 0.03 0.03 0.03 0.03 0.04 0.04 0.03 0.02 0.02 0.02 0.02 0.02 0.02 0.02 0.01 0.01 0.00 0.00 0.01 0.01 0.01 0.02 0.02 0.01 0.02
0.04 0.03 0.02 0.01 0.02 0.02 0.02 0.03 0.03 0.04 0.04 0.04 0.03 0.05 0.04 0.03 0.04 0.05 0.03 0.02 0.02 0.02 0.03 0.03 0.02 0.02 0.01 0.01 0.02 0.02 0.01 0.01 0.01 0.01 0.00 0.00 0.02 0.02 0.02 0.02 0.02 0.02 0.02
0.04 0.03 0.03 0.02 0.02 0.02 0.02 0.03 0.03 0.04 0.05 0.05 0.04 0.05 0.05 0.05 0.05 0.05 0.03 0.02 0.01 0.01 0.02 0.02 0.02 0.01 0.01 0.01 0.02 0.01 0.01 0.01 0.01 0.01 0.01 0.00 0.01 0.02 0.02 0.02 0.02 0.02 0.03
0.04 0.05 0.03 0.02 0.03 0.02 0.03 0.03 0.04 0.05 0.04 0.05 0.04 0.06 0.06 0.05 0.05 0.05 0.03 0.02 0.01 0.02 0.02 0.02 0.01 0.01 0.01 0.01 0.01 0.01 0.01 0.01 0.01 0.01 0.01 0.01 0.01 0.01 0.01 0.01 0.02 0.02 0.03
0.06 0.06 0.05 0.04 0.03 0.03 0.05 0.05 0.04 0.06 0.05 0.05 0.05 0.07 0.07 0.05 0.05 0.05 0.03 0.02 0.01 0.01 0.01 0.01 0.01 0.01 0.01 0.00 0.01 0.01 0.01 0.01 0.01 0.01 0.01 0.01 0.01 0.01 0.02 0.01 0.01 0.02 0.03
0.06 0.07 0.05 0.04 0.04 0.03 0.05 0.06 0.05 0.06 0.06 0.05 0.06 0.07 0.07 0.06 0.05 0.04 0.03 0.02 0.01 0.01 0.01 0.01 0.01 0.01 0.01 0.01 0.01 0.01 0.01 0.01 0.01 0.01 0.01 0.02 0.02 0.02 0.03 0.02 0.01 0.02 0.03
0.05 0.06 0.04 0.04 0.04 0.04 0.03 0.05 0.06 0.06 0.06 0.05 0.06 0.05 0.06 0.05 0.03 0.03 0.02 0.02 0.02 0.01 0.01 0.00 0.00 0.01 0.01 0.01 0.01 0.01 0.01 0.01 0.01 0.01 0.01 0.02 0.02 0.03 0.04 0.03 0.03 0.03 0.04
0.05 0.06 0.04 0.02 0.02 0.03 0.03 0.04 0.05 0.06 0.07 0.06 0.06 0.07 0.06 0.04 0.03 0.02 0.02 0.01 0.01 0.01 0.01 0.00 0.00 0.00 0.00 0.00 0.01 0.01 0.00 0.00 0.00 0.01 0.01 0.02 0.03 0.03 0.03 0.04 0.04 0.03 0.02
0.05 0.06 0.05 0.03 0.04 0.03 0.04 0.05 0.04 0.04 0.05 0.05 0.05 0.05 0.06 0.05 0.04 0.03 0.03 0.02 0.01 0.01 0.00 0.00 0.00 0.00 0.00 0.00 0.00 0.00 0.00 0.00 0.01 0.01 0.01 0.02 0.03 0.04 0.03 0.04 0.04 0.04 0.03
0.04 0.06 0.06 0.05 0.04 0.04 0.04 0.04 0.04 0.04 0.04 0.04 0.04 0.05 0.05 0.04 0.04 0.04 0.04 0.03 0.02 0.01 0.00 0.00 0.00 0.00 0.00 0.00 0.00 0.00 0.00 0.00 0.01 0.01 0.01 0.02 0.04 0.04 0.04 0.04 0.03 0.03 0.03
0.05 0.06 0.06 0.05 0.05 0.04 0.05 0.04 0.04 0.04 0.04 0.04 0.04 0.04 0.04 0.05 0.05 0.05 0.05 0.05 0.03 0.01 0.01 0.01 0.00 0.00 0.00 0.00 0.00 0.00 0.00 0.00 0.01 0.01 0.01 0.02 0.04 0.06 0.04 0.03 0.03 0.03 0.02
0.04 0.05 0.05 0.05 0.05 0.04 0.04 0.05 0.06 0.06 0.06 0.07 0.07 0.06 0.05 0.06 0.07 0.07 0.05 0.06 0.05 0.03 0.01 0.01 0.01 0.01 0.01 0.00 0.00 0.00 0.01 0.01 0.01 0.01 0.01 0.01 0.02 0.04 0.04 0.04 0.04 0.03 0.02
0.03 0.02 0.02 0.03 0.04 0.03 0.03 0.03 0.04 0.05 0.07 0.10 0.11 0.09 0.07 0.05 0.07 0.08 0.08 0.07 0.06 0.04 0.01 0.01 0.02 0.01 0.01 0.01 0.01 0.01 0.01 0.01 0.02 0.01 0.01 0.01 0.01 0.01 0.02 0.03 0.04 0.04 0.03
0.04 0.02 0.01 0.02 0.03 0.03 0.03 0.03 0.04 0.04 0.05 0.08 0.13 0.12 0.10 0.08 0.07 0.09 0.09 0.08 0.07 0.05 0.02 0.01 0.01 0.01 0.01 0.01 0.01 0.01 0.01 0.01 0.01 0.02 0.01 0.01 0.01 0.01 0.02 0.03 0.04 0.04 0.04
0.04 0.03 0.02 0.03 0.03 0.03 0.03 0.02 0.04 0.04 0.05 0.06 0.08 0.12 0.12 0.10 0.09 0.10 0.11 0.09 0.07 0.06 0.04 0.01 0.00 0.00 0.00 0.00 0.00 0.01 0.01 0.01 0.01 0.02 0.03 0.03 0.02 0.03 0.04 0.04 0.04 0.04 0.04
0.04 0.03 0.03 0.04 0.06 0.05 0.04 0.03 0.03 0.03 0.04 0.05 0.06 0.08 0.11 0.11 0.10 0.11 0.12 0.12 0.09 0.06 0.04 0.02 0.01 0.00 0.00 0.00 0.00 0.00 0.00 0.00 0.01 0.01 0.01 0.02 0.02 0.02 0.02 0.02 0.02 0.02 0.02
0.04 0.04 0.04 0.05 0.05 0.07 0.06 0.05 0.04 0.04 0.04 0.05 0.06 0.08 0.11 0.12 0.11 0.10 0.10 0.12 0.13 0.09 0.05 0.03 0.02 0.01 0.00 0.00 0.00 0.00 0.00 0.00 0.00 0.00 0.00 0.00 0.01 0.01 0.01 0.01 0.01 0.01 0.02
0.03 0.04 0.04 0.06 0.06 0.06 0.05 0.05 0.04 0.04 0.04 0.04 0.05 0.06 0.09 0.11 0.09 0.07 0.08 0.09 0.13 0.13 0.08 0.03 0.02 0.01 0.01 0.00 0.00 0.01 0.01 0.01 0.01 0.01 0.01 0.00 0.00 0.01 0.01 0.01 0.01 0.01 0.01
0.02 0.02 0.04 0.05 0.05 0.05 0.05 0.04 0.04 0.03 0.03 0.04 0.04 0.05 0.07 0.08 0.07 0.06 0.06 0.07 0.10 0.13 0.11 0.06 0.03 0.02 0.01 0.01 0.01 0.01 0.01 0.01 0.01 0.01 0.01 0.01 0.00 0.00 0.00 0.01 0.01 0.01 0.00
0.02 0.02 0.03 0.04 0.05 0.05 0.05 0.04 0.03 0.03 0.04 0.05 0.06 0.06 0.06 0.07 0.07 0.06 0.05 0.05 0.07 0.10 0.11 0.09 0.05 0.04 0.03 0.02 0.01 0.01 0.01 0.01 0.01 0.01 0.01 0.01 0.01 0.00 0.00 0.00 0.01 0.01 0.01
0.02 0.02 0.02 0.03 0.04 0.05 0.05 0.04 0.04 0.03 0.03 0.03 0.04 0.05 0.06 0.07 0.08 0.07 0.05 0.04 0.04 0.05 0.08 0.09 0.07 0.04 0.04 0.03 0.02 0.01 0.00 0.00 0.01 0.01 0.01 0.01 0.01 0.01 0.01 0.01 0.01 0.01 0.01
0.02 0.02 0.01 0.02 0.02 0.02 0.03 0.03 0.04 0.04 0.03 0.03 0.04 0.04 0.05 0.06 0.07 0.07 0.07 0.06 0.05 0.04 0.05 0.09 0.09 0.06 0.04 0.03 0.02 0.01 0.01 0.00 0.00 0.01 0.01 0.01 0.01 0.01 0.01 0.01 0.01 0.01 0.01
0.01 0.01 0.01 0.01 0.02 0.02 0.02 0.02 0.02 0.02 0.02 0.03 0.04 0.04 0.04 0.04 0.06 0.06 0.07 0.06 0.05 0.05 0.05 0.06 0.10 0.11 0.08 0.04 0.02 0.01 0.01 0.01 0.02 0.02 0.02 0.01 0.01 0.01 0.01 0.01 0.01 0.01 0.01
MSLP
1019.87 1019.66 1019.50 1019.45 1019.53 1019.70 1019.92 1020.13 1020.28 1020.36 1020.35 1020.29 1020.23 1020.19 1020.20 1020.27 1020.38 1020.50 1020.62 1020.69 1020.72 1020.70 1020.65 1020.58 1020.49 1020.38 1020.25 1020.09 1019.89 1019.64 1019.35 1019.03 1018.70 1018.36 1018.04 1017.72 1017.41 1017.08 1016.72 1016.33 1015.91 1015.48 1015.06
1019.78 1019.59 1019.46 1019.46 1019.57 1019.77 1020.00 1020.22 1020.38 1020.46 1020.48 1020.46 1020.43 1020.44 1020.50 1020.60 1020.74 1020.88 1021.00 1021.08 1021.11 1021.11 1021.07 1021.02 1020.95 1020.87 1020.76 1020.62 1020.43 1020.19 1019.91 1019.61 1019.28 1018.97 1018.66 1018.35 1018.05 1017.74 1017.41 1017.05 1016.66 1016.27 1015.89
1019.74 1019.57 1019.48 1019.51 1019.64 1019.86 1020.10 1020.33 1020.49 1020.59 1020.63 1020.64 1020.66 1020.72 1020.82 1020.95 1021.11 1021.26 1021.37 1021.45 1021.48 1021.47 1021.45 1021.41 1021.36 1021.31 1021.23 1021.12 1020.95 1020.74 1020.49 1020.21 1019.91 1019.62 1019.32 1019.04 1018.75 1018.45 1018.13 1017.79 1017.44 1017.09 1016.75
1019.76 1019.62 1019.56 1019.62 1019.77 1020.00 1020.24 1020.46 1020.62 1020.73 1020.78 1020.83 1020.89 1020.98 1021.12 1021.28 1021.45 1021.60 1021.71 1021.77 1021.80 1021.79 1021.77 1021.75 1021.73 1021.71 1021.66 1021.58 1021.45 1021.28 1021.06 1020.81 1020.54 1020.26 1019.99 1019.71 1019.43 1019.13 1018.82 1018.49 1018.17 1017.86 1017.58
1019.83 1019.72 1019.69 1019.78 1019.96 1020.19 1020.42 1020.62 1020.76 1020.86 1020.92 1020.98 1021.08 1021.21 1021.38 1021.56 1021.74 1021.90 1022.00 1022.05 1022.07 1022.06 1022.05 1022.05 1022.06 1022.06 1022.05 1022.01 1021.91 1021.77 1021.59 1021.37 1021.12 1020.87 1020.60 1020.33 1020.04 1019.74 1019.42 1019.11 1018.81 1018.54 1018.31
1019.92 1019.85 1019.88 1020.00 1020.20 1020.42 1020.63 1020.80 1020.92 1020.99 1021.05 1021.12 1021.23 1021.39 1021.58 1021.79 1021.99 1022.14 1022.24 1022.29 1022.30 1022.30 1022.31 1022.32 1022.35 1022.39 1022.40 1022.39 1022.32 1022.21 1022.06 1021.86 1021.63 1021.39 1021.13 1020.84 1020.54 1020.23 1019.91 1019.61 1019.33 1019.10 1018.93
1020.05 1020.03 1020.10 1020.27 1020.48 1020.70 1020.89 1021.02 1021.10 1021.14 1021.18 1021.25 1021.37 1021.55 1021.77 1022.00 1022.20 1022.36 1022.46 1022.52 1022.53 1022.54 1022.55 1022.58 1022.63 1022.69 1022.73 1022.73 1022.69 1022.60 1022.46 1022.28 1022.06 1021.82 1021.56 1021.26 1020.95 1020.62 1020.30 1020.00 1019.74 1019.55 1019.43
1020.20 1020.24 1020.37 1020.57 1020.81 1021.03 1021.19 1021.29 1021.33 1021.34 1021.36 1021.42 1021.56 1021.75 1021.98 1022.22 1022.44 1022.60 1022.71 1022.76 1022.78 1022.79 1022.81 1022.86 1022.92 1022.98 1023.03 1023.04 1023.01 1022.93 1022.80 1022.63 1022.42 1022.19 1021.92 1021.62 1021.29 1020.96 1020.62 1020.33 1020.09 1019.92 1019.84
1020.38 1020.47 1020.66 1020.91 1021.16 1021.38 1021.53 1021.60 1021.62 1021.60 1021.61 1021.68 1021.82 1022.02 1022.27 1022.52 1022.74 1022.90 1023.00 1023.05 1023.06 1023.08 1023.10 1023.15 1023.21 1023.27 1023.32 1023.33 1023.30 1023.22 1023.10 1022.94 1022.74 1022.51 1022.25 1021.95 1021.63 1021.29 1020.95 1020.66 1020.43 1020.28 1020.22
1020.59 1020.73 1020.96 1021.24 1021.52 1021.74 1021.89 1021.95 1021.95 1021.94 1021.95 1022.02 1022.18 1022.39 1022.64 1022.89 1023.10 1023.25 1023.34 1023.38 1023.38 1023.39 1023.41 1023.45 1023.51 1023.57 1023.61 1023.61 1023.58 1023.50 1023.38 1023.22 1023.04 1022.83 1022.58 1022.30 1021.99 1021.66 1021.34 1021.04 1020.81 1020.67 1020.62
1020.83 1020.98 1021.24 1021.54 1021.84 1022.07 1022.22 1022.28 1022.29 1022.30 1022.33 1022.42 1022.59 1022.82 1023.07 1023.31 1023.50 1023.64 1023.70 1023.72 1023.72 1023.72 1023.73 1023.77 1023.82 1023.87 1023.90 1023.89 1023.84 1023.76 1023.64 1023.50 1023.34 1023.15 1022.93 1022.69 1022.40 1022.09 1021.78 1021.50 1021.26 1021.11 1021.05
1021.07 1021.22 1021.48 1021.78 1022.08 1022.31 1022.47 1022.55 1022.59 1022.62 1022.69 1022.82 1023.01 1023.25 1023.49 1023.71 1023.89 1023.99 1024.04 1024.04 1024.03 1024.02 1024.04 1024.08 1024.12 1024.16 1024.18 1024.15 1024.09 1024.00 1023.88 1023.75 1023.61 1023.45 1023.27 1023.07 1022.82 1022.55 1022.26 1021.99 1021.75 1021.58 1021.49
1021.30 1021.42 1021.65 1021.93 1022.21 1022.44 1022.60 1022.71 1022.78 1022.86 1022.97 1023.13 1023.34 1023.58 1023.82 1024.03 1024.17 1024.26 1024.29 1024.28 1024.27 1024.27 1024.30 1024.35 1024.40 1024.43 1024.44 1024.40 1024.32 1024.21 1024.08 1023.95 1023.82 1023.70 1023.56 1023.39 1023.20 1022.96 1022.71 1022.45 1022.22 1022.03 1021.91
1021.52 1021.58 1021.75 1021.98 1022.22 1022.43 1022.59 1022.72 1022.83 1022.94 1023.10 1023.29 1023.52 1023.77 1023.99 1024.17 1024.30 1024.37 1024.39 1024.39 1024.40 1024.43 1024.49 1024.56 1024.62 1024.66 1024.66 1024.60 1024.50 1024.36 1024.22 1024.07 1023.95 1023.84 1023.73 1023.60 1023.45 1023.26 1023.04 1022.81 1022.58 1022.39 1022.24
1021.73 1021.71 1021.80 1021.96 1022.14 1022.31 1022.46 1022.60 1022.73 1022.88 1023.07 1023.29 1023.52 1023.76 1023.96 1024.12 1024.23 1024.29 1024.33 1024.36 1024.41 1024.48 1024.58 1024.69 1024.78 1024.82 1024.81 1024.73 1024.60 1024.43 1024.25 1024.09 1023.95 1023.84 1023.74 1023.65 1023.54 1023.39 1023.21 1023.01 1022.80 1022.61 1022.45
1021.96 1021.86 1021.86 1021.93 1022.04 1022.16 1022.28 1022.41 1022.56 1022.72 1022.92 1023.14 1023.37 1023.58 1023.76 1023.90 1023.99 1024.06 1024.11 1024.18 1024.28 1024.42 1024.57 1024.72 1024.84 1024.90 1024.88 1024.78 1024.61 1024.41 1024.19 1023.99 1023.82 1023.70 1023.61 1023.53 1023.44 1023.33 1023.19 1023.02 1022.84 1022.66 1022.51
1022.28 1022.09 1022.00 1021.98 1022.01 1022.07 1022.16 1022.26 1022.40 1022.57 1022.76 1022.96 1023.16 1023.34 1023.48 1023.58 1023.66 1023.73 1023.81 1023.92 1024.07 1024.26 1024.47 1024.66 1024.81 1024.88 1024.85 1024.73 1024.54 1024.30 1024.04 1023.81 1023.61 1023.47 1023.36 1023.29 1023.21 1023.13 1023.02 1022.89 1022.74 1022.59 1022.45
1022.75 1022.48 1022.30 1022.20 1022.15 1022.15 1022.19 1022.27 1022.39 1022.53 1022.69 1022.86 1023.01 1023.14 1023.23 1023.30 1023.35 1023.41 1023.50 1023.64 1023.83 1024.06 1024.30 1024.52 1024.68 1024.76 1024.73 1024.60 1024.39 1024.12 1023.85 1023.59 1023.37 1023.21 1023.09 1023.01 1022.94 1022.87 1022.78 1022.68 1022.57 1022.45 1022.33
1023.42 1023.09 1022.84 1022.66 1022.54 1022.48 1022.48 1022.53 1022.61 1022.72 1022.84 1022.95 1023.04 1023.11 1023.14 1023.16 1023.17 1023.21 1023.29 1023.43 1023.63 1023.86 1024.11 1024.33 1024.49 1024.56 1024.53 1024.40 1024.19 1023.93 1023.66 1023.40 1023.18 1023.00 1022.88 1022.78 1022.71 1022.64 1022.57 1022.48 1022.39 1022.30 1022.21
1024.31 1023.94 1023.63 1023.39 1023.22 1023.11 1023.07 1023.08 1023.12 1023.19 1023.26 1023.32 1023.34 1023.34 1023.30 1023.26 1023.22 1023.21 1023.25 1023.36 1023.52 1023.72 1023.94 1024.13 1024.27 1024.32 1024.29 1024.17 1023.98 1023.75 1023.51 1023.28 1023.08 1022.91 1022.78 1022.68 1022.59 1022.51 1022.43 1022.35 1022.28 1022.21 1022.13
1025.41 1025.02 1024.67 1024.39 1024.17 1024.02 1023.94 1023.91 1023.92 1023.94 1023.97 1023.96 1023.93 1023.86 1023.75 1023.64 1023.53 1023.46 1023.43 1023.47 1023.56 1023.69 1023.83 1023.96 1024.04 1024.08 1024.04 1023.94 1023.80 1023.63 1023.44 1023.26 1023.10 1022.96 1022.83 1022.71 1022.61 1022.50 1022.41 1022.32 1022.24 1022.17 1022.11
1026.67 1026.27 1025.90 1025.59 1025.33 1025.14 1025.02 1024.96 1024.94 1024.93 1024.90 1024.86 1024.77 1024.64 1024.47 1024.29 1024.11 1023.96 1023.85 1023.78 1023.76 1023.78 1023.82 1023.86 1023.88 1023.87 1023.83 1023.77 1023.68 1023.58 1023.46 1023.35 1023.24 1023.13 1023.00 1022.87 1022.74 1022.60 1022.47 1022.35 1022.26 1022.19 1022.13
1028.01 1027.62 1027.24 1026.90 1026.61 1026.39 1026.24 1026.14 1026.08 1026.04 1025.98 1025.90 1025.77 1025.60 1025.39 1025.15 1024.91 1024.67 1024.46 1024.28 1024.14 1024.02 1023.94 1023.87 1023.81 1023.76 1023.72 1023.68 1023.64 1023.61 1023.58 1023.53 1023.47 1023.38 1023.25 1023.10 1022.92 1022.74 1022.56 1022.41 1022.29 1022.21 1022.14
1029.35 1028.97 1028.58 1028.22 1027.91 1027.65 1027.46 1027.34 1027.25 1027.17 1027.09 1026.99 1026.84 1026.65 1026.41 1026.13 1025.84 1025.53 1025.22 1024.93 1024.66 1024.42 1024.21 1024.03 1023.89 1023.79 1023.74 1023.72 1023.73 1023.75 1023.78 1023.78 1023.74 1023.65 1023.51 1023.32 1023.09 1022.86 1022.64 1022.45 1022.30 1022.20 1022.14
1030.60 1030.25 1029.86 1029.48 1029.14 1028.86 1028.63 1028.46 1028.34 1028.24 1028.14 1028.02 1027.87 1027.67 1027.43 1027.14 1026.81 1026.45 1026.07 1025.69 1025.31 1024.95 1024.63 1024.36 1024.15 1024.01 1023.93 1023.92 1023.96 1024.02 1024.07 1024.08 1024.04 1023.93 1023.75 1023.51 1023.23 1022.94 1022.67 1022.44 1022.27 1022.16 1022.09
1031.73 1031.39 1031.02 1030.63 1030.27 1029.95 1029.69 1029.49 1029.33 1029.21 1029.09 1028.96 1028.81 1028.62 1028.38 1028.10 1027.76 1027.37 1026.94 1026.50 1026.04 1025.60 1025.20 1024.86 1024.60 1024.42 1024.33 1024.32 1024.36 1024.42 1024.46 1024.46 1024.39 1024.23 1023.98 1023.68 1023.34 1023.00 1022.69 1022.43 1022.25 1022.13 1022.06
Thickness
5688 5690 5690 5690 5690 5690 5689 5689 5688 5688 5687 5686 5686 5685 5685 5684 5684 5684 5684 5683 5683 5682 5681 5681 5680 5679 5678 5677 5677 5676 5675 5674 5674 5674 5673 5673 5673 5672 5672 5671 5671 5670 5669
5687 5687 5687 5687 5687 5686 5686 5685 5685 5684 5683 5683 5682 5682 5681 5681 5680 5680 5679 5679 5679 5678 5677 5676 5675 5675 5674 5673 5672 5671 5670 5670 5669 5669 5669 5669 5669 5668 5668 5668 5667 5666 5665
5683 5684 5683 5683 5683 5683 5682 5681 5681 5680 5680 5679 5678 5678 5677 5676 5676 5676 5675 5675 5674 5674 5673 5672 5671 5670 5669 5669 5668 5667 5666 5666 5665 5665 5664 5664 5664 5664 5664 5664 5663 5662 5662
5679 5679 5679 5679 5679 5678 5678 5677 5677 5676 5676 5675 5674 5674 5673 5672 5672 5672 5671 5670 5670 5669 5668 5668 5666 5665 5665 5664 5663 5663 5662 5661 5661 5660 5660 5660 5660 5660 5660 5659 5659 5658 5658
5674 5673 5673 5673 5674 5673 5673 5673 5672 5672 5671 5671 5670 5669 5669 5668 5667 5667 5666 5666 5665 5664 5664 5663 5662 5661 5660 5660 5659 5658 5657 5657 5656 5656 5656 5656 5656 5656 5656 5655 5655 5654 5653
5668 5668 5668 5668 5668 5668 5668 5668 5668 5668 5667 5666 5666 5665 5664 5663 5663 5662 5662 5661 5660 5659 5659 5658 5657 5656 5656 5655 5654 5653 5653 5652 5652 5651 5651 5651 5652 5652 5652 5651 5650 5650 5649
5662 5662 5662 5662 5663 5663 5663 5663 5663 5663 5662 5662 5661 5660 5659 5658 5658 5657 5657 5656 5655 5654 5653 5653 5652 5651 5651 5650 5650 5649 5648 5648 5647 5647 5647 5647 5647 5647 5647 5647 5646 5646 5645
5656 5655 5655 5656 5656 5657 5657 5657 5658 5657 5657 5656 5656 5655 5655 5654 5653 5652 5652 5651 5650 5649 5648 5648 5647 5646 5646 5646 5645 5644 5644 5643 5643 5643 5642 5643 5643 5643 5643 5643 5642 5642 5641
5649 5649 5648 5648 5649 5650 5651 5651 5651 5651 5651 5651 5650 5649 5649 5648 5647 5647 5646 5645 5645 5644 5643 5642 5642 5641 5641 5640 5640 5640 5639 5638 5638 5638 5638 5638 5638 5639 5639 5638 5638 5637 5636
5640 5641 5641 5641 5642 5643 5644 5645 5645 5645 5645 5644 5644 5643 5643 5642 5641 5641 5641 5640 5639 5638 5637 5637 5637 5636 5636 5635 5635 5635 5634 5634 5633 5633 5633 5633 5634 5634 5634 5634 5633 5632 5632
5632 5632 5633 5634 5635 5636 5637 5638 5638 5638 5638 5637 5637 5636 5636 5635 5635 5635 5634 5634 5633 5632 5632 5631 5631 5631 5630 5630 5629 5629 5629 5629 5628 5628 5628 5628 5628 5629 5629 5628 5628 5627 5627
5623 5624 5625 5626 5628 5629 5630 5630 5631 5631 5630 5630 5629 5629 5629 5628 5628 5628 5628 5628 5627 5626 5626 5625 5625 5625 5625 5624 5624 5623 5623 5623 5623 5623 5623 5623 5623 5623 5623 5623 5623 5622 5622
5616 5618 5619 5620 5621 5622 5623 5623 5623 5623 5623 5623 5622 5622 5622 5621 5621 5621 5621 5621 5621 5620 5619 5619 5619 5619 5619 5618 5618 5618 5617 5617 5617 5617 5617 5617 5618 5618 5618 5618 5617 5617 5616
5609 5611 5612 5613 5614 5615 5616 5616 5616 5616 5616 5616 5616 5615 5615 5614 5613 5613 5614 5614 5614 5614 5613 5613 5613 5613 5612 5612 5612 5611 5611 5611 5611 5611 5611 5611 5612 5612 5612 5612 5612 5611 5611
5603 5604 5605 5607 5607 5609 5609 5610 5610 5610 5609 5610 5609 5609 5609 5608 5607 5606 5606 5607 5607 5607 5607 5607 5606 5606 5605 5605 5605 5605 5605 5604 5605 5605 5605 5605 5605 5606 5606 5606 5606 5606 5606
5596 5597 5598 5599 5601 5602 5603 5603 5603 5603 5602 5602 5603 5602 5602 5602 5601 5600 5600 5600 5600 5600 5600 5600 5600 5599 5598 5598 5598 5598 5598 5598 5598 5599 5599 5599 5599 5599 5599 5600 5599 5600 5600
5588 5589 5591 5593 5594 5595 5595 5596 5596 5595 5595 5595 5595 5595 5595 5595 5594 5594 5593 5593 5593 5593 5593 5593 5593 5592 5591 5591 5591 5591 5591 5592 5592 5592 5592 5592 5592 5592 5592 5593 5592 5592 5592
5580 5582 5583 5585 5586 5587 5587 5587 5588 5588 5588 5588 5587 5588 5588 5588 5587 5587 5586 5586 5586 5586 5586 5586 5585 5584 5583 5583 5583 5583 5584 5584 5585 5584 5585 5585 5585 5584 5584 5584 5584 5584 5584
5571 5573 5574 5576 5578 5579 5579 5579 5580 5580 5580 5580 5579 5580 5580 5580 5580 5580 5579 5579 5579 5579 5578 5578 5577 5576 5576 5575 5575 5575 5576 5576 5577 5577 5577 5577 5576 5576 5576 5576 5576 5576 5576
5563 5564 5566 5567 5569 5570 5570 5570 5570 5570 5570 5571 5571 5571 5572 5572 5572 5571 5571 5572 5571 5571 5570 5569 5569 5568 5568 5567 5567 5567 5567 5568 5568 5569 5568 5569 5568 5568 5567 5567 5568 5568 5568
5553 5555 5556 5558 5559 5560 5560 5561 5561 5560 5560 5561 5561 5561 5562 5563 5563 5563 5563 5564 5563 5562 5562 5561 5561 5559 5558 5558 5558 5557 5557 5559 5559 5560 5559 5559 5559 5559 5559 5559 5558 5558 5558
5542 5543 5545 5547 5549 5550 5551 5551 5551 5551 5551 5551 5551 5551 5552 5553 5554 5555 5555 5555 5555 5554 5553 5553 5553 5551 5550 5550 5550 5549 5548 5548 5550 5550 5550 5550 5550 5550 5550 5549 5549 5549 5549
5530 5531 5534 5536 5537 5539 5540 5541 5541 5541 5540 5539 5540 5541 5542 5543 5544 5545 5546 5546 5545 5546 5545 5544 5545 5544 5542 5541 5541 5541 5540 5541 5539 5540 5540 5540 5540 5540 5540 5540 5540 5540 5540
5519 5520 5522 5524 5526 5527 5529 5530 5530 5530 5530 5529 5530 5530 5531 5532 5533 5534 5535 5536 5536 5536 5537 5536 5536 5536 5535 5533 5532 5532 5532 5532 5530 5530 5530 5530 5530 5530 5530 5531 5531 5530 5530
5508 5509 5511 5512 5514 5516 5517 5518 5519 5519 5518 5519 5519 5519 5520 5521 5522 5523 5524 5524 5526 5526 5526 5527 5527 5526 5526 5526 5524 5523 5522 5521 5521 5521 5522 5521 5520 5520 5520 5520 5521 5520 5520
5497 5498 5499 5500 5501 5503 5504 5505 5506 5506 5507 5507 5507 5508 5509 5510 5511 5512 5513 5513 5514 5515 5516 5516 5516 5516 5516 5516 5516 5515 5514 5513 5511 5511 5511 5510 5510 5510 5510 5510 5510 5510 5509